TimeCDT,TemperatureF,Dew PointF,Humidity,Sea Level PressureIn,VisibilityMPH,Wind Direction,Wind SpeedMPH,Gust SpeedMPH,PrecipitationIn,Events,Conditions,WindDirDegrees,DateUTC
12:15 AM,52.3,44.6,75,29.94,10.0,South,8.1,-,N/A,,Clear,180,2013-04-28 05:15:00
12:35 AM,52.3,44.6,75,29.93,10.0,South,6.9,-,N/A,,Clear,190,2013-04-28 05:35:00
12:55 AM,51.3,44.6,78,29.94,10.0,South,4.6,-,N/A,,Clear,180,2013-04-28 05:55:00
1:15 AM,50.9,44.2,78,29.94,10.0,South,5.8,-,N/A,,Clear,190,2013-04-28 06:15:00
1:35 AM,49.6,43.7,80,29.94,10.0,South,4.6,-,N/A,,Clear,190,2013-04-28 06:35:00
1:55 AM,48.9,43.9,83,29.92,10.0,South,4.6,-,N/A,,Clear,180,2013-04-28 06:55:00
2:15 AM,49.1,43.7,82,29.92,10.0,SSE,8.1,-,N/A,,Clear,160,2013-04-28 07:15:00
2:35 AM,48.4,43.5,83,29.92,10.0,SSE,8.1,-,N/A,,Clear,150,2013-04-28 07:35:00
2:55 AM,48.2,43.2,83,29.91,10.0,South,9.2,-,N/A,,Clear,170,2013-04-28 07:55:00
3:15 AM,46.9,42.8,86,29.91,10.0,South,5.8,-,N/A,,Clear,170,2013-04-28 08:15:00
3:35 AM,46.4,42.4,86,29.90,10.0,SSE,8.1,-,N/A,,Clear,150,2013-04-28 08:35:00
3:55 AM,45.9,42.3,87,29.89,10.0,South,8.1,-,N/A,,Clear,180,2013-04-28 08:55:00
4:15 AM,46.0,43.0,89,29.89,10.0,South,10.4,-,N/A,,Clear,180,2013-04-28 09:15:00
4:35 AM,46.2,42.8,88,29.88,10.0,South,9.2,-,N/A,,Clear,170,2013-04-28 09:35:00
4:55 AM,46.2,42.8,88,29.88,10.0,South,9.2,-,N/A,,Clear,170,2013-04-28 09:55:00
5:15 AM,45.7,42.6,89,29.88,10.0,South,8.1,-,N/A,,Clear,170,2013-04-28 10:15:00
5:35 AM,45.5,42.8,90,29.87,7.0,South,9.2,-,N/A,,Clear,170,2013-04-28 10:35:00
5:55 AM,45.5,43.0,91,29.87,7.0,South,6.9,-,N/A,,Clear,170,2013-04-28 10:55:00
6:15 AM,45.9,43.3,91,29.87,7.0,South,8.1,-,N/A,,Clear,170,2013-04-28 11:15:00
6:35 AM,46.2,43.5,90,29.87,7.0,SSE,8.1,-,N/A,,Clear,160,2013-04-28 11:35:00
6:55 AM,46.4,43.9,91,29.87,7.0,South,9.2,-,N/A,,Clear,170,2013-04-28 11:55:00
7:15 AM,46.6,44.4,92,29.87,7.0,South,8.1,-,N/A,,Clear,170,2013-04-28 12:15:00
7:35 AM,47.7,45.1,91,29.86,7.0,SSE,11.5,-,N/A,,Clear,160,2013-04-28 12:35:00
8:15 AM,52.2,47.3,83,29.85,10.0,South,12.7,17.3,N/A,,Clear,190,2013-04-28 13:15:00
8:35 AM,54.3,48.2,80,29.85,10.0,South,11.5,-,N/A,,Clear,180,2013-04-28 13:35:00
8:55 AM,56.7,48.9,75,29.84,10.0,SSW,9.2,-,N/A,,Clear,200,2013-04-28 13:55:00
9:15 AM,58.5,49.1,71,29.84,10.0,South,11.5,-,N/A,,Clear,190,2013-04-28 14:15:00
9:35 AM,60.3,48.7,66,29.83,10.0,SSW,15.0,-,N/A,,Clear,200,2013-04-28 14:35:00
9:55 AM,62.8,48.9,61,29.83,7.0,SSW,16.1,-,N/A,,Clear,200,2013-04-28 14:55:00
10:15 AM,64.2,48.7,57,29.82,10.0,South,15.0,-,N/A,,Clear,190,2013-04-28 15:15:00
10:35 AM,66.4,47.3,50,29.82,10.0,South,17.3,-,N/A,,Clear,190,2013-04-28 15:35:00
10:55 AM,67.8,45.0,44,29.81,7.0,SSW,17.3,24.2,N/A,,Clear,210,2013-04-28 15:55:00
11:15 AM,69.1,43.3,39,29.80,5.0,SSW,18.4,23.0,N/A,,Haze,210,2013-04-28 16:15:00
11:35 AM,71.6,40.8,33,29.80,10.0,SSW,16.1,25.3,N/A,,Clear,210,2013-04-28 16:35:00
11:55 AM,72.5,41.0,32,29.78,10.0,SSW,13.8,27.6,N/A,,Clear,200,2013-04-28 16:55:00
12:15 PM,74.3,39.0,28,29.77,10.0,SSW,21.9,32.2,N/A,,Clear,210,2013-04-28 17:15:00
12:35 PM,75.4,39.6,27,29.77,10.0,SSW,21.9,28.8,N/A,,Clear,210,2013-04-28 17:35:00
12:55 PM,76.1,40.1,27,29.76,10.0,SW,21.9,28.8,N/A,,Clear,220,2013-04-28 17:55:00
1:15 PM,76.3,40.8,28,29.76,10.0,SSW,21.9,26.5,N/A,,Clear,200,2013-04-28 18:15:00
1:35 PM,76.1,40.5,28,29.75,10.0,SSW,21.9,27.6,N/A,,Clear,200,2013-04-28 18:35:00
1:55 PM,77.2,40.5,27,29.75,10.0,SSW,19.6,24.2,N/A,,Clear,200,2013-04-28 18:55:00
2:15 PM,78.4,40.5,26,29.74,10.0,SSW,19.6,26.5,N/A,,Clear,210,2013-04-28 19:15:00
2:35 PM,78.3,40.8,26,29.74,10.0,SSW,17.3,21.9,N/A,,Clear,210,2013-04-28 19:35:00
2:55 PM,78.8,41.4,26,29.73,10.0,South,18.4,23.0,N/A,,Clear,190,2013-04-28 19:55:00
3:15 PM,79.7,39.7,24,29.72,10.0,SSW,12.7,21.9,N/A,,Clear,210,2013-04-28 20:15:00
3:35 PM,80.6,39.9,23,29.72,10.0,SSW,15.0,-,N/A,,Clear,210,2013-04-28 20:35:00
3:55 PM,80.8,39.6,23,29.71,10.0,SW,16.1,-,N/A,,Clear,220,2013-04-28 20:55:00
4:15 PM,81.5,40.1,23,29.70,10.0,SSW,16.1,21.9,N/A,,Clear,200,2013-04-28 21:15:00
4:35 PM,81.5,38.8,22,29.69,10.0,SSW,16.1,21.9,N/A,,Clear,200,2013-04-28 21:35:00
4:55 PM,81.0,39.6,23,29.69,10.0,South,17.3,20.7,N/A,,Clear,190,2013-04-28 21:55:00
5:15 PM,80.8,39.2,23,29.68,7.0,SSW,13.8,-,N/A,,Clear,210,2013-04-28 22:15:00
5:35 PM,80.2,40.5,24,29.68,7.0,SSW,17.3,24.2,N/A,,Clear,200,2013-04-28 22:35:00
5:55 PM,78.8,41.2,26,29.68,10.0,SSW,17.3,20.7,N/A,,Clear,200,2013-04-28 22:55:00
6:15 PM,78.3,40.3,26,29.67,10.0,SSW,13.8,-,N/A,,Clear,210,2013-04-28 23:15:00
6:35 PM,78.8,41.4,26,29.67,10.0,SSW,17.3,20.7,N/A,,Clear,200,2013-04-28 23:35:00
6:55 PM,76.5,41.9,29,29.67,10.0,South,13.8,-,N/A,,Clear,190,2013-04-28 23:55:00
7:15 PM,75.4,42.3,30,29.67,10.0,South,8.1,-,N/A,,Clear,180,2013-04-29 00:15:00
7:35 PM,73.9,43.2,33,29.67,10.0,South,8.1,-,N/A,,Clear,180,2013-04-29 00:35:00
7:55 PM,72.5,43.5,35,29.67,10.0,South,8.1,-,N/A,,Clear,180,2013-04-29 00:55:00
8:15 PM,71.1,43.3,37,29.68,10.0,South,6.9,-,N/A,,Clear,180,2013-04-29 01:15:00
8:35 PM,69.8,43.7,39,29.69,10.0,South,5.8,-,N/A,,Clear,170,2013-04-29 01:35:00
8:55 PM,67.6,44.8,44,29.69,10.0,SSE,3.5,-,N/A,,Clear,160,2013-04-29 01:55:00
9:15 PM,66.0,45.1,47,29.72,10.0,NNE,8.1,-,N/A,,Clear,20,2013-04-29 02:15:00
9:35 PM,66.7,44.1,44,29.73,10.0,North,5.8,-,N/A,,Clear,360,2013-04-29 02:35:00
9:55 PM,67.5,44.6,44,29.75,10.0,NNE,10.4,-,N/A,,Clear,20,2013-04-29 02:55:00
10:15 PM,65.7,45.9,49,29.76,10.0,NE,9.2,-,N/A,,Clear,40,2013-04-29 03:15:00
10:35 PM,64.4,46.0,51,29.76,10.0,NE,9.2,18.4,N/A,,Clear,40,2013-04-29 03:35:00
10:55 PM,63.9,45.9,52,29.76,10.0,NNE,9.2,-,N/A,,Clear,30,2013-04-29 03:55:00
11:15 PM,63.5,44.6,50,29.75,10.0,NNE,8.1,-,N/A,,Clear,30,2013-04-29 04:15:00
11:35 PM,62.6,45.5,54,29.76,10.0,NE,8.1,-,N/A,,Clear,50,2013-04-29 04:35:00
11:55 PM,61.9,45.5,55,29.76,10.0,NE,5.8,-,N/A,,Clear,40,2013-04-29 04:55:00